Location: Bonny Doon Airfield
(37.0704°N, 122.1252°W)
Time: 16:45:10
(UTC-07:00)

Vanguard 2 - Pass Details

Date: 12 December 2017
Orbit: 553 x 2939 km, 32.9° (Epoch: 25 April)

Event Time Altitude Azimuth Distance (km) Brightness Sun altitude
Rises 21:13:18 0° 263° (W) 2,719 - -51.2°
Reaches altitude 10° 21:16:24 10° 235° (SW) 1,836 - -51.8°
Maximum altitude 21:18:30 14° 203° (SSW) 1,663 - -52.2°
Drops below altitude 10° 21:20:47 10° 171° (S) 2,013 - -52.7°
Sets 21:24:31 0° 146° (SE) 3,207 - -53.4°
